User: anonymous
Location: Waldport
(44.4270°N, 124.0680°W)
Time: 04:49:19
(UTC-07:00)
Language:

Cosmos 1570 Rocket - Orbit

View from above orbital plane
View from above orbital plane
View from above satellite
View from above satellite

Ground track
Ground track

The orbit data is extracted from the following two-line orbital elements,

1 15032U 84056B   14261.75096777  .00000158  00000-0  65153-4 0  4821
2 15032 074.0696 108.3898 0017142 166.6920 265.2007 14.34404297583171
Epoch (UTC): 18 September 2014 18:01:23
Eccentricity: 0.0017142
inclination: 74.0696°
perigee height: 765 km
apogee height: 789 km
right ascension of ascending node: 108.3898°
argument of perigee: 166.6920°
revolutions per day: 14.34404297
mean anomaly at epoch: 265.2007°
orbit number at epoch: 58317

The dashed part of the orbit path shows where the satellite is in the earth's shadow,  

DLR